GFSWCAN_con_lsi_120.txt.gz
Lid_Strength_Index
-0 0 0 1 2 3 3 3 3 2 2 3 3 3 2 3 3 5 7 7 8 11 10 8 8 11 11 12 15 13 14 13 14 15 14 14 14 13 14 12 13 15 16 17 15 18 20 13 12 15 13 12 12 14
-0 0 1 2 2 2 2 3 2 2 2 3 2 2 2 2 3 4 8 6 7 9 10 7 7 7 8 9 11 11 12 11 11 15 14 13 14 13 13 17 11 15 14 16 16 17 13 13 13 12 13 14 13 13
-0 -0 1 1 2 2 2 3 2 2 2 2 2 2 2 2 2 4 8 8 9 10 9 8 8 7 6 7 7 11 11 9 10 10 11 14 13 12 14 14 12 11 10 14 14 13 13 13 13 13 13 13 13 13
-0 0 1 1 1 2 2 2 2 2 1 1 1 1 1 2 3 5 8 8 8 9 11 9 5 7 6 6 7 7 8 8 9 10 12 12 13 10 12 12 13 12 11 14 13 12 12 12 13 12 13 12 13 13
-0 0 1 1 1 2 2 2 2 2 2 2 1 1 2 2 3 5 7 7 7 8 12 10 7 5 5 6 6 7 8 10 11 11 13 13 11 10 10 11 12 11 12 14 17 11 12 12 12 12 13 14 14 15
-0 0 1 1 2 2 2 2 2 2 2 1 1 1 2 3 5 8 11 7 6 7 10 13 9 7 5 6 7 8 8 10 10 11 12 11 9 11 15 15 10 9 9 9 11 10 11 11 12 13 14 14 14 15
-0 -0 0 1 2 2 2 2 2 2 2 2 2 2 3 3 6 9 10 6 4 7 11 13 9 6 5 6 7 9 9 10 10 11 11 11 10 10 16 15 10 9 8 9 9 10 12 12 14 13 13 14 14 15
-0 0 0 1 1 2 2 2 2 2 3 2 2 2 3 4 5 6 5 3 5 8 9 13 11 8 6 10 12 10 10 10 10 11 11 11 11 12 15 11 9 8 8 9 9 9 11 12 13 14 14 15 15 16
-0 0 0 1 1 2 2 2 3 2 2 2 2 3 6 8 9 6 2 3 5 8 13 15 12 14 9 10 10 11 10 15 11 14 11 11 13 15 12 11 10 9 9 10 11 11 13 13 14 14 14 15 16 16
0 0 0 1 1 2 2 2 2 2 2 3 6 9 14 9 4 3 6 9 10 7 9 13 12 14 11 12 13 13 13 14 15 13 11 14 14 11 10 9 8 9 9 10 13 14 13 14 14 14 15 15 15 16
0 0 0 1 1 1 2 2 2 2 4 7 10 9 7 3 5 7 11 13 12 12 10 11 11 13 10 13 14 13 14 14 15 13 13 16 13 13 11 10 8 9 10 10 11 11 12 12 13 14 15 15 16 17
-0 -0 0 1 1 1 1 2 2 6 7 7 5 4 4 7 9 12 12 10 11 13 12 12 12 10 12 10 12 12 14 15 16 13 13 16 15 13 12 10 9 10 10 11 11 12 13 13 14 14 16 17 18 19
-0 0 0 0 1 1 1 2 3 3 3 4 6 8 11 10 16 17 16 13 13 13 13 12 14 9 12 11 15 12 18 18 14 13 18 15 14 13 12 12 12 12 12 12 13 13 13 14 15 16 17 18 20 21
0 0 0 0 0 1 1 2 2 4 6 11 13 16 17 15 15 15 13 14 13 13 12 13 13 12 13 13 17 18 16 14 21 21 17 16 14 13 13 12 13 14 15 15 15 16 17 18 20 22 23 24 24 26
-0 -0 0 0 1 1 1 2 3 6 9 12 12 15 13 14 12 10 11 9 9 12 12 13 13 12 16 16 15 16 18 20 17 18 17 16 15 13 14 15 17 17 18 18 19 20 21 23 23 27 29 29 27 29
-0 0 2 0 1 1 2 4 5 7 9 12 12 15 12 11 10 10 9 9 10 13 12 11 14 16 16 15 16 18 16 19 17 17 16 16 15 15 16 17 18 19 19 20 21 21 23 23 23 24 28 29 31 30
2 4 0 1 1 2 3 6 8 9 11 12 15 11 11 12 12 9 8 8 10 10 12 13 17 16 13 16 17 15 18 17 17 16 14 18 17 17 18 18 20 20 21 21 23 22 24 24 23 22 23 27 26 26
3 1 0 1 3 4 6 7 9 10 12 14 15 12 14 12 10 9 9 8 8 9 9 12 12 15 19 18 19 16 19 14 13 11 19 21 21 20 18 19 20 20 21 22 22 23 23 23 22 22 22 23 23 23
1 1 1 2 4 7 9 9 9 13 14 13 14 12 12 11 10 9 8 8 7 7 9 12 15 16 16 15 16 19 15 11 13 15 20 22 21 19 21 21 21 22 21 21 20 20 21 21 21 21 20 20 21 21
0 1 1 2 3 8 10 10 8 10 13 13 12 13 13 13 10 10 9 9 7 7 8 11 15 15 14 14 14 14 16 15 15 14 14 21 22 20 21 19 19 20 20 20 20 20 20 20 19 19 19 20 22 22
2 2 2 4 6 7 10 10 11 11 11 13 11 11 12 10 13 15 14 9 9 10 10 11 12 15 16 16 15 15 14 13 15 14 16 20 22 19 19 20 19 19 20 20 20 21 20 20 20 19 24 25 24 24
4 2 5 6 8 8 9 8 10 10 12 11 11 10 12 13 13 12 11 12 13 13 12 14 13 15 14 14 16 14 15 13 14 16 17 17 18 19 19 19 19 20 20 21 19 20 20 20 20 21 24 27 26 25
3 5 8 9 13 13 15 7 10 10 13 11 10 12 12 14 13 10 12 11 14 15 14 14 13 12 13 15 12 13 13 13 16 18 17 18 18 18 18 18 19 20 21 20 19 20 21 22 23 26 26 26 25 27
4 7 11 14 14 18 12 11 9 10 11 11 13 14 12 11 9 11 13 17 15 15 12 12 13 14 13 12 15 15 14 14 15 16 16 17 18 19 18 18 18 18 18 18 19 21 23 27 24 22 25 26 29 28
12 15 15 19 10 11 14 13 12 12 18 13 15 15 13 11 14 14 15 17 15 13 13 13 12 13 15 17 17 16 13 14 15 17 18 17 18 17 18 19 20 20 19 22 25 26 27 23 22 22 23 27 24 27
19 15 12 14 12 13 16 19 17 16 17 15 13 13 14 16 15 15 15 15 16 12 12 12 11 12 12 12 14 15 15 14 14 16 17 16 17 18 20 21 22 22 21 21 20 21 21 22 23 24 27 26 25 25
18 13 11 9 9 10 13 12 12 15 17 17 16 14 14 18 18 18 16 15 16 14 12 11 10 11 12 14 15 15 15 15 16 17 18 19 19 19 19 20 21 20 21 20 21 21 21 23 26 25 24 24 24 25
13 12 14 12 11 11 12 13 13 14 14 13 12 15 16 19 19 20 18 16 15 13 14 14 14 14 15 17 16 17 18 18 18 19 18 19 20 21 21 20 21 20 23 23 25 24 23 22 23 22 23 26 30 29
14 12 11 14 14 14 15 14 13 14 14 13 15 17 20 18 20 20 19 17 15 15 17 20 19 18 17 17 17 17 18 18 17 19 21 22 23 22 24 22 22 23 22 21 19 22 23 23 24 27 29 29 35 36
14 12 14 15 15 17 19 16 18 18 16 15 16 17 18 19 18 17 17 17 17 21 21 20 20 19 18 18 19 19 20 20 20 18 20 21 21 24 26 24 24 24 23 22 23 24 23 28 28 32 32 33 34 35
11 13 15 16 17 18 17 16 16 16 18 19 19 19 19 19 17 17 18 18 19 19 20 20 19 18 17 18 19 20 21 22 22 22 22 23 24 25 25 25 25 24 25 27 28 29 30 33 35 34 34 35 39 40
14 16 17 19 18 17 16 16 17 18 19 19 20 20 20 20 20 20 20 20 20 20 21 21 21 23 22 21 22 22 23 24 23 23 23 23 24 25 24 25 26 26 28 29 30 30 31 34 36 36 38 40 42 41
17 18 18 18 19 19 18 18 19 20 21 21 21 22 24 23 23 23 22 21 23 25 24 24 24 24 24 24 24 23 23 24 23 22 23 24 25 25 27 27 28 28 29 31 33 33 34 35 38 40 41 41 42 42

GFSWCAN_con_lsi_123.txt.gz
Lid_Strength_Index
-0 0 0 0 1 1 2 2 3 3 3 3 3 3 2 3 3 6 6 6 7 10 9 7 8 10 10 11 13 12 12 11 12 13 12 13 13 12 13 11 13 14 15 16 15 16 18 13 12 14 13 12 12 13
-0 -0 0 1 1 1 2 2 3 3 2 3 3 3 2 3 3 4 7 6 6 9 9 7 7 6 7 8 10 10 11 10 10 12 12 11 12 11 12 15 10 14 13 14 15 15 13 13 13 12 11 12 12 13
-0 -0 0 0 1 1 2 2 3 2 2 2 2 2 2 2 3 4 6 7 7 9 8 8 8 6 5 6 6 10 10 8 9 8 10 10 12 10 13 13 11 11 10 13 14 13 13 13 13 13 12 12 12 12
-0 -0 0 0 1 2 2 2 3 2 2 2 2 2 2 2 3 4 7 6 7 8 10 9 5 6 5 5 6 7 7 8 8 8 9 10 10 8 10 10 10 10 10 12 13 12 13 13 12 12 12 12 13 13
-0 -0 0 0 1 1 2 2 3 2 2 2 1 1 2 2 3 4 6 6 6 8 11 9 7 5 5 5 6 6 7 9 9 9 10 10 9 9 8 9 11 9 11 13 13 10 11 12 11 11 12 13 13 14
-0 -0 0 1 1 1 2 2 3 3 2 1 1 1 2 3 4 6 9 6 6 7 9 11 8 6 6 6 7 7 8 9 8 9 9 9 8 8 11 11 9 8 8 8 10 9 10 10 11 11 12 13 13 14
-0 -0 -0 1 1 1 2 2 3 2 2 1 2 2 2 2 4 7 9 7 5 7 9 11 10 7 5 6 8 8 8 9 8 9 9 9 8 8 11 12 9 8 8 8 9 10 13 12 13 12 12 12 13 14
-0 -0 0 1 1 1 2 2 3 2 2 2 2 2 2 3 4 5 5 3 5 8 9 11 11 9 6 10 9 9 9 9 9 9 9 8 8 9 11 10 9 8 8 9 9 8 10 11 13 13 13 14 14 15
0 0 1 1 1 2 2 2 2 2 2 2 2 3 5 7 7 5 3 4 5 8 12 12 11 12 7 9 9 9 9 11 9 10 9 9 10 11 9 9 9 9 8 9 10 11 11 12 13 13 13 14 14 15
0 0 1 1 1 2 2 2 2 2 2 4 6 9 11 7 3 4 7 10 9 8 9 11 11 10 9 10 11 11 11 11 12 10 9 10 10 10 8 8 8 8 8 9 11 12 12 13 13 13 13 13 13 14
0 0 0 1 1 2 2 2 2 2 4 7 9 10 7 4 5 8 12 13 11 12 10 11 10 10 8 11 11 11 11 11 13 11 10 12 12 10 9 8 7 8 8 8 8 9 10 11 12 12 13 13 14 15
0 0 0 1 1 2 2 2 3 6 7 7 6 4 4 7 9 12 12 11 12 13 11 11 10 9 9 8 10 11 12 12 14 11 11 13 11 10 9 8 8 8 9 9 9 10 11 11 11 12 13 14 15 16
0 0 0 1 1 1 2 3 3 3 3 4 7 8 10 10 14 16 16 14 13 12 11 10 11 9 9 9 12 11 13 14 11 12 14 12 11 11 10 9 9 9 9 10 11 11 11 12 12 13 15 15 17 19
0 0 0 1 1 1 2 2 2 4 7 11 13 13 14 15 14 14 12 12 12 11 11 10 10 10 11 11 14 14 13 12 16 16 14 11 11 11 11 11 11 11 12 12 12 13 14 15 17 17 18 19 20 22
0 0 -0 0 1 1 2 3 4 5 9 12 12 16 13 13 12 11 10 10 9 10 10 10 11 10 13 14 13 14 15 16 15 14 12 11 12 12 12 13 13 14 15 15 15 16 18 19 19 21 21 21 21 24
-0 0 1 0 1 1 3 4 6 7 9 11 12 13 11 11 11 10 9 9 9 10 10 10 12 14 14 13 14 15 15 16 13 12 11 12 13 13 13 14 14 16 16 16 17 17 19 20 19 20 23 22 23 23
1 3 0 0 1 2 3 7 8 10 11 12 13 11 11 12 11 9 8 8 9 9 12 12 15 14 12 14 15 13 14 12 11 11 9 12 13 14 15 16 17 17 17 17 18 18 19 20 21 21 21 22 22 22
3 1 1 1 2 4 6 7 9 10 12 13 12 11 11 11 10 9 9 8 7 8 9 11 10 13 16 15 14 12 12 13 11 11 12 15 15 15 14 15 17 17 17 19 18 19 20 20 19 18 19 20 20 20
2 1 1 1 4 6 8 9 8 12 12 12 13 12 10 10 9 8 8 8 7 7 9 11 13 13 13 12 11 12 13 11 10 11 15 18 17 16 17 17 18 18 18 18 18 17 18 18 17 17 17 18 18 17
0 1 1 2 3 8 9 10 8 10 12 12 11 11 11 11 10 10 9 9 8 7 9 10 11 11 11 10 11 9 10 11 12 12 12 15 16 17 17 17 16 17 18 17 17 18 18 18 17 17 17 17 17 16
2 3 2 4 6 7 9 9 10 11 11 12 10 10 12 10 12 12 12 9 9 9 9 9 9 11 13 12 11 11 12 11 11 10 11 14 17 15 16 16 17 17 17 17 17 17 18 17 16 16 17 16 16 16
3 2 6 6 8 8 9 8 10 10 11 10 11 11 13 13 13 12 11 11 11 11 11 11 11 12 12 11 12 12 12 12 13 15 16 16 16 16 16 16 16 17 17 17 16 17 17 16 16 16 16 16 21 18
3 4 7 8 12 13 12 7 11 10 15 13 11 13 13 13 13 10 12 11 12 13 12 12 12 11 12 13 12 12 12 13 13 14 14 14 14 15 15 16 15 16 17 17 16 16 17 19 19 17 18 19 18 18
4 9 12 14 14 17 12 13 10 11 11 12 14 15 14 12 9 11 12 13 13 13 11 11 11 11 11 11 12 12 13 13 14 14 14 14 15 15 15 15 15 15 15 16 16 16 17 17 21 19 19 19 19 18
11 14 16 20 11 16 15 17 12 13 16 14 14 14 12 10 12 13 14 14 12 11 11 11 11 11 11 12 13 13 13 13 13 14 15 14 15 15 16 16 16 15 15 16 17 17 18 19 18 18 19 18 18 20
18 15 17 17 18 16 15 19 15 15 18 14 13 13 12 13 14 15 15 15 15 12 12 12 11 11 11 11 12 12 12 13 13 14 14 14 14 15 16 16 16 16 16 15 17 17 17 18 18 19 19 21 23 20
18 17 11 9 10 10 14 13 12 15 17 16 15 15 16 18 17 16 14 14 15 13 12 12 11 10 11 13 14 15 14 14 14 15 16 16 16 15 15 16 16 15 17 16 16 16 17 19 19 20 21 21 21 21
14 13 15 13 13 11 15 14 16 16 16 13 12 15 17 17 17 16 15 15 15 14 13 14 14 14 14 15 16 16 17 17 17 16 16 16 18 19 19 18 18 19 19 19 18 18 18 19 19 20 21 23 26 26
13 13 12 15 13 12 13 12 12 13 13 12 12 13 17 17 17 17 17 17 16 15 16 15 16 16 16 16 16 15 15 14 14 16 17 18 18 19 20 19 19 19 18 19 19 20 20 21 22 24 26 27 29 29
14 11 13 14 15 14 16 14 16 17 15 15 15 16 17 18 17 16 17 17 17 17 18 17 17 16 16 16 17 18 18 18 17 15 17 18 19 21 20 20 21 21 20 20 21 22 22 24 25 27 27 28 28 28
11 13 15 16 17 17 16 15 15 16 17 18 17 18 19 18 17 17 18 19 18 17 17 18 18 17 16 16 16 17 18 20 21 20 19 20 21 22 22 22 22 21 21 22 24 25 26 27 27 28 29 30 32 30
14 15 16 18 18 16 15 16 16 18 19 18 19 19 19 18 19 19 20 20 17 18 19 18 19 21 20 20 20 21 21 21 21 21 21 22 22 22 22 22 23 23 24 26 26 27 27 28 29 29 30 32 32 32
16 17 17 18 18 18 17 17 18 19 19 19 20 20 21 20 21 21 20 21 22 21 22 22 22 22 22 22 22 23 23 23 23 21 22 22 23 23 24 24 25 25 27 28 28 28 29 30 31 32 32 33 33 33

GFSWCAN_con_lsi_126.txt.gz
Lid_Strength_Index
-0 -0 0 0 1 1 1 2 3 4 4 3 3 3 3 4 4 4 6 4 4 6 7 6 7 8 8 8 10 9 9 9 9 10 10 10 11 10 11 10 11 11 13 13 13 15 17 11 11 13 12 11 11 11
-0 -0 0 0 1 1 1 2 3 3 3 3 3 2 3 3 3 4 5 3 2 5 6 5 5 5 6 6 7 8 8 8 7 8 8 8 11 10 10 14 8 12 10 11 13 13 11 11 11 9 9 10 10 11
-0 -0 0 0 0 1 1 2 2 3 3 3 2 2 2 3 4 3 3 2 3 5 6 6 7 4 3 3 3 7 6 6 7 5 6 7 11 7 12 10 10 9 8 10 11 12 12 11 10 10 9 9 10 10
-0 -0 0 0 1 1 1 2 2 2 2 2 2 2 2 3 4 3 3 3 2 4 8 8 4 6 4 3 3 3 5 5 5 5 6 7 8 7 9 8 8 7 7 10 12 11 11 11 10 10 11 11 11 11
-0 -0 0 0 1 1 1 3 2 2 2 2 1 2 2 3 3 2 2 3 3 4 8 8 5 4 3 3 4 4 5 6 6 7 7 8 6 7 6 7 9 6 8 9 10 9 9 10 9 9 11 11 11 12
-0 -0 -0 0 1 1 2 3 3 2 2 1 2 2 3 4 4 2 7 2 2 1 6 9 5 5 4 4 4 5 5 5 5 6 6 6 5 6 8 9 7 6 6 6 7 7 8 9 9 8 10 10 10 11
-0 -0 -0 0 1 1 2 3 3 3 2 2 2 2 3 2 2 4 5 4 3 2 6 9 9 5 4 5 5 5 5 5 5 6 6 6 5 5 7 9 7 6 6 5 6 7 10 10 10 9 10 10 11 11
-0 -0 0 0 1 1 2 3 3 2 2 2 2 2 2 2 2 4 2 3 3 4 5 9 9 8 5 7 7 5 6 5 6 6 5 6 5 5 9 7 6 6 6 6 6 6 7 8 9 10 10 11 12 13
-0 0 0 0 1 2 2 2 2 2 2 2 3 3 2 3 4 4 3 3 2 4 8 8 10 11 5 6 6 6 5 8 6 6 6 6 7 10 7 7 7 6 7 7 6 7 8 9 10 11 11 12 12 13
0 0 0 1 1 2 2 2 2 2 2 3 3 5 8 5 3 3 3 5 6 6 6 9 7 9 6 6 7 8 6 8 10 7 5 8 8 6 6 5 5 6 5 6 8 9 9 9 10 10 10 10 11 12
0 0 0 1 1 2 2 2 2 3 4 4 7 8 5 3 3 5 9 8 8 10 7 8 7 8 5 8 9 7 8 8 11 9 9 9 9 7 5 5 5 5 5 6 5 6 7 8 9 10 10 10 11 11
0 0 1 1 2 2 2 2 3 4 5 4 5 3 3 5 7 10 10 10 10 11 9 8 7 6 6 5 7 7 10 9 13 6 10 11 7 7 6 5 5 5 5 6 6 6 7 8 8 9 10 10 11 12
0 0 1 1 2 2 2 3 3 3 2 3 5 8 8 9 12 12 14 12 12 10 9 8 8 6 6 5 7 8 11 11 7 10 11 8 7 7 6 5 5 5 6 6 7 7 7 8 8 9 11 11 13 14
0 1 1 1 2 2 2 2 3 3 4 7 9 12 11 13 11 10 10 10 9 8 8 6 8 7 6 8 9 11 10 9 12 13 12 7 8 7 6 5 6 7 7 7 8 8 9 11 12 12 13 14 15 17
0 1 1 1 2 2 2 2 4 3 6 9 9 13 12 10 9 9 8 9 9 7 7 7 7 6 9 10 9 10 12 13 11 10 7 6 8 8 8 8 8 9 9 9 10 11 12 14 14 15 15 15 15 18
0 1 2 1 2 2 3 3 3 4 7 8 10 11 9 9 9 9 8 9 7 6 6 5 9 9 10 9 11 12 12 12 9 7 6 6 9 9 9 9 9 9 10 10 11 12 14 15 15 14 16 16 17 17
1 3 1 1 2 3 3 4 5 8 9 10 10 9 9 8 9 8 8 8 6 6 9 8 10 12 9 11 12 9 10 7 6 5 6 8 9 9 9 10 12 11 12 11 12 13 13 14 16 16 17 17 17 17
3 1 1 1 2 3 4 5 7 9 11 10 9 9 9 9 8 8 8 7 6 6 6 9 8 11 11 12 10 7 6 6 6 7 7 9 10 10 9 10 12 11 12 13 13 14 15 16 15 14 14 16 16 16
1 1 1 1 2 4 7 7 6 10 10 9 9 8 8 8 8 7 8 6 4 4 6 7 9 9 9 7 7 6 6 5 6 7 8 12 12 11 11 11 12 12 13 13 13 13 13 13 11 12 13 14 14 14
1 1 1 2 2 5 8 8 6 9 10 9 8 8 8 9 8 8 7 7 6 6 7 8 8 7 6 5 5 4 5 5 6 7 7 9 10 12 11 11 10 11 12 13 12 12 13 13 13 13 13 13 13 13
1 1 2 1 3 4 7 8 9 8 8 9 8 8 9 8 8 8 8 7 7 7 7 6 6 6 8 8 6 5 6 6 5 5 6 8 10 9 10 10 11 11 11 12 12 13 13 12 12 12 13 12 12 11
2 2 2 3 5 6 7 6 8 7 8 9 8 8 10 10 9 9 8 8 8 8 8 7 7 7 7 9 7 8 8 8 9 10 11 10 10 10 10 10 11 11 11 11 11 11 12 12 12 12 12 12 13 12
2 2 4 5 8 8 10 5 9 9 11 11 9 11 11 10 9 8 10 9 9 9 9 9 9 9 9 10 9 9 9 8 7 8 9 9 9 9 9 10 10 10 11 11 11 11 12 13 13 12 12 13 13 13
3 6 8 9 9 11 9 10 9 10 10 11 12 14 12 11 9 10 11 9 9 10 9 10 9 9 9 9 8 8 9 8 9 10 9 9 10 10 10 10 10 10 10 11 12 12 12 12 13 13 12 13 13 13
7 9 9 12 9 11 12 11 11 12 14 13 14 13 11 9 12 12 12 10 9 10 10 9 9 9 9 8 8 9 10 9 9 9 10 10 10 11 11 11 11 10 10 11 12 12 12 12 12 13 14 14 14 15
11 10 11 12 11 12 12 13 12 13 12 13 13 10 9 11 13 13 10 11 11 11 11 11 10 9 9 9 10 10 10 9 9 9 11 10 10 10 11 11 12 12 10 10 11 12 13 13 13 14 15 16 17 16
12 12 9 8 8 10 11 10 10 10 12 12 10 11 11 13 13 11 11 11 11 11 11 10 10 9 8 9 11 11 11 11 10 11 12 12 12 11 10 10 11 11 11 11 11 11 12 13 14 15 16 16 16 16
9 9 12 10 10 9 11 11 11 11 10 9 9 11 12 12 12 11 11 11 11 11 10 11 11 11 11 11 11 12 12 13 13 12 12 13 13 13 13 13 14 14 13 12 12 12 13 14 15 16 17 19 20 19
10 8 8 12 10 9 9 9 9 9 10 9 9 10 12 13 13 13 12 12 12 11 11 11 12 11 12 12 12 11 11 11 11 12 13 13 13 15 13 13 13 13 14 15 16 16 15 16 18 19 20 21 22 22
10 8 10 11 12 11 10 10 11 11 12 12 12 13 14 14 14 13 13 12 12 12 12 12 11 11 12 12 13 14 13 13 13 11 12 13 14 15 14 15 15 15 16 17 19 19 20 20 21 21 22 22 22 23
9 9 11 11 12 12 11 12 12 12 12 13 13 12 14 14 14 14 15 15 13 12 12 13 14 12 12 12 12 13 14 15 16 15 14 15 15 16 16 17 17 17 17 18 19 19 20 21 21 23 24 25 26 25
11 12 13 15 15 13 13 13 13 13 14 14 15 14 15 15 16 16 18 17 14 15 16 15 15 17 17 16 17 17 17 17 17 17 17 17 17 18 18 18 18 18 19 20 20 21 22 22 23 24 25 26 26 27
14 14 14 15 16 16 15 14 15 17 16 16 17 17 17 16 19 19 18 19 19 18 19 19 19 19 19 18 18 19 19 19 19 19 19 19 19 19 19 19 19 20 21 22 22 23 24 25 25 26 27 27 28 28

GFSWCAN_con_lsi_129.txt.gz
Lid_Strength_Index
0 1 -0 -0 0 1 1 1 2 3 4 4 4 4 4 4 4 4 4 2 3 7 7 6 6 7 7 7 9 7 7 7 8 10 10 10 10 10 10 9 10 11 12 13 12 14 17 9 9 12 11 9 10 10
0 0 -0 -0 0 1 1 1 3 3 4 4 3 3 3 3 4 4 4 2 2 5 6 4 4 4 4 5 5 6 7 7 6 8 7 7 10 9 9 13 8 12 9 11 11 12 10 9 9 8 8 9 10 10
0 -0 -0 -0 0 1 1 2 3 3 3 3 3 3 3 3 3 2 3 2 3 5 5 5 6 3 2 2 1 7 5 5 5 4 6 6 10 7 11 9 10 8 6 9 10 10 10 9 8 8 8 9 9 9
1 0 -0 0 1 1 1 2 3 3 3 2 2 2 3 3 2 2 3 0 2 4 8 8 3 5 3 2 2 2 3 3 3 4 6 7 8 6 8 8 8 7 7 9 11 10 9 9 9 9 9 9 10 10
2 0 0 0 0 1 1 2 3 2 2 2 2 2 2 2 2 1 0 1 0 3 8 7 4 3 3 3 3 3 3 4 5 6 6 7 5 6 6 6 8 6 8 10 10 8 7 8 8 8 9 10 10 11
1 0 -0 0 1 1 2 2 2 2 2 2 2 3 4 4 3 1 6 1 0 1 5 9 4 5 4 3 4 4 4 4 4 5 6 5 5 6 8 9 7 5 5 5 7 5 5 6 7 7 9 9 10 10
1 -0 0 1 1 1 2 3 2 2 2 2 2 2 2 2 1 4 4 3 2 0 5 8 8 5 4 4 4 4 4 4 4 5 6 6 6 5 7 9 6 5 4 4 4 5 7 7 8 8 8 8 9 9
0 -0 0 1 1 2 3 3 3 2 2 2 2 2 2 2 2 3 2 2 2 2 4 8 9 7 4 6 6 3 5 4 5 5 6 6 6 5 8 6 5 5 5 5 5 4 5 6 6 8 8 9 10 10
0 0 0 1 1 2 3 3 2 2 2 2 2 2 2 2 3 3 3 2 0 2 6 6 9 11 5 6 5 5 4 7 5 6 6 6 7 9 7 6 5 5 5 6 5 5 5 7 8 8 9 10 10 11
0 0 0 1 1 2 3 3 2 2 3 3 2 4 8 4 3 2 2 3 3 4 4 7 5 9 6 6 6 7 5 7 9 7 5 7 7 6 5 4 4 4 4 4 6 7 7 8 8 9 9 9 10 11
0 0 1 1 1 2 2 2 2 3 3 3 5 7 3 2 2 4 8 7 6 8 5 6 6 8 4 8 8 5 7 7 10 9 8 9 9 7 5 4 3 3 4 4 4 5 5 6 7 8 8 9 9 10
-0 0 1 1 1 1 2 2 3 3 3 3 3 2 2 4 6 8 9 8 8 10 7 7 7 6 5 4 6 6 9 8 12 6 9 11 8 5 4 4 4 3 4 4 4 5 5 6 6 7 8 9 9 10
0 1 1 1 1 1 2 2 2 2 2 2 4 6 6 7 11 11 13 10 10 8 7 7 8 6 5 4 7 7 11 11 6 10 11 8 6 5 4 4 4 4 4 5 5 5 5 6 6 7 8 9 10 11
1 1 1 1 1 2 2 2 2 3 3 6 7 11 9 11 9 8 8 8 8 7 6 6 7 7 6 8 8 11 9 8 12 13 11 7 6 6 4 4 4 5 5 5 5 6 6 7 8 9 9 11 11 13
1 1 1 2 2 2 2 3 3 2 4 7 7 11 10 8 8 8 7 7 7 5 5 6 6 6 8 9 8 9 11 12 11 10 8 6 7 6 6 5 6 7 8 8 7 9 9 10 11 11 12 12 13 14
1 1 2 2 2 2 3 3 2 3 5 7 8 10 8 8 9 8 8 9 6 5 4 5 8 9 10 9 10 11 11 12 9 7 5 4 7 7 6 6 7 7 8 8 8 9 10 12 12 11 12 13 14 15
1 4 2 2 3 3 3 3 4 7 8 9 9 7 8 7 9 9 7 7 5 5 9 7 10 12 8 10 11 8 10 8 6 5 4 8 8 8 8 8 8 8 8 8 10 10 11 11 12 13 14 14 14 14
2 1 2 2 2 2 3 4 6 8 10 8 9 9 8 8 8 8 7 5 5 6 6 8 6 10 10 11 10 7 6 5 4 5 5 8 9 8 8 8 9 9 9 9 10 11 11 13 13 12 12 13 13 14
1 1 2 2 2 3 6 6 5 10 9 8 7 7 7 8 7 7 7 5 3 3 4 6 9 9 8 7 7 6 6 5 5 5 7 9 9 9 8 9 9 9 9 10 10 10 10 11 10 10 11 12 12 12
2 2 2 2 1 4 8 7 4 8 9 8 7 8 8 8 7 8 6 6 6 5 7 8 8 7 7 5 4 4 4 3 4 5 6 7 8 9 9 9 8 8 9 10 10 10 10 10 9 10 10 11 11 11
1 1 1 1 2 4 6 7 8 7 7 8 7 7 8 6 7 7 7 5 6 6 7 6 6 6 7 7 5 4 5 4 4 4 4 6 7 6 8 7 8 8 8 8 9 10 10 10 10 10 10 11 10 10
1 1 0 1 4 5 6 5 7 6 7 8 7 7 8 8 8 8 6 7 7 7 7 7 7 6 6 8 7 6 7 6 7 7 8 7 7 7 7 7 8 8 8 8 8 9 9 9 9 10 10 10 11 11
2 1 2 4 7 7 9 4 8 8 10 9 8 9 9 8 8 7 8 7 8 8 8 8 8 7 8 8 7 7 7 6 5 6 7 6 6 6 6 7 7 8 9 8 8 8 9 9 10 10 10 11 11 12
2 5 7 7 7 10 7 9 7 9 8 10 10 12 11 9 7 8 10 8 9 8 9 9 8 8 7 7 6 7 7 6 6 7 7 7 7 8 7 8 8 8 8 8 9 9 9 10 11 11 11 11 12 12
6 8 7 9 7 9 10 11 10 10 12 11 12 12 10 8 11 11 10 9 9 9 9 9 8 8 8 7 7 7 8 7 7 7 8 7 8 8 9 9 10 9 9 9 9 9 10 10 11 11 12 11 12 12
9 8 8 9 9 10 10 12 11 11 11 12 12 10 9 11 12 12 10 11 10 10 10 10 10 9 8 8 8 8 9 7 7 8 9 8 8 9 10 11 11 11 8 8 9 10 10 10 11 12 12 12 13 14
10 9 7 6 7 8 9 9 8 9 11 12 10 11 11 13 12 11 11 10 10 10 10 10 10 9 9 9 9 9 9 9 9 9 9 9 9 9 9 9 10 10 9 9 8 9 10 11 11 12 13 13 14 14
7 7 10 9 9 7 10 10 11 11 9 8 8 11 12 11 11 11 11 10 10 10 9 9 9 9 9 9 9 9 10 10 10 10 10 10 10 10 11 11 12 11 10 9 9 9 10 11 12 14 15 17 17 17
8 7 7 10 10 9 9 9 9 9 9 8 9 9 10 11 11 11 11 10 9 9 9 9 10 9 10 10 9 9 9 9 10 11 11 12 12 13 11 11 11 11 12 13 13 12 13 14 15 16 17 18 19 19
8 6 8 9 10 10 9 8 9 9 8 9 9 10 10 11 11 11 10 10 10 10 10 10 10 9 10 10 11 11 11 11 11 10 10 11 13 12 11 12 12 13 14 15 17 18 18 18 18 18 19 19 20 21
7 8 9 9 10 10 9 9 9 9 9 10 10 10 10 12 12 12 13 12 11 11 10 11 11 11 10 10 10 11 13 13 12 11 12 12 13 13 13 14 14 14 15 16 16 17 18 19 19 21 22 22 23 23
9 10 10 12 11 11 10 10 10 11 11 11 11 11 12 12 13 13 15 14 11 12 14 12 14 15 14 14 14 14 14 14 14 14 14 15 15 15 15 15 15 16 16 17 18 18 19 20 21 22 23 24 24 25
11 11 11 12 13 14 12 12 13 14 13 13 14 13 13 14 16 16 16 16 16 16 16 16 16 16 16 16 16 17 17 17 17 17 17 17 17 16 16 16 17 18 19 19 20 20 21 22 22 23 24 25 25 25

GFSWCAN_con_lsi_132.txt.gz
Lid_Strength_Index
1 0 1 1 -0 0 0 0 1 2 3 4 4 4 4 4 4 5 3 1 4 7 7 6 6 8 7 8 11 9 9 9 9 10 10 10 11 10 11 9 11 12 13 14 12 14 18 8 9 12 10 8 8 9
1 0 1 2 -0 0 0 1 1 2 3 4 4 4 4 4 4 4 4 1 2 6 7 5 5 5 5 5 6 6 7 7 8 8 8 8 10 10 10 14 8 12 10 12 12 13 9 8 7 6 7 9 9 10
1 1 1 1 0 0 0 1 1 2 3 4 3 3 3 4 4 3 2 2 4 6 7 7 7 5 3 3 1 7 6 5 5 4 6 8 10 8 12 11 9 8 7 10 10 10 9 8 7 6 7 8 8 9
1 1 2 0 0 1 1 1 2 2 3 3 2 3 3 3 2 2 2 1 3 6 9 9 4 5 3 3 2 2 3 2 3 4 6 7 9 6 9 9 9 8 7 9 11 9 8 8 7 7 8 8 9 9
2 2 1 -0 0 1 1 1 2 3 3 2 3 3 3 3 2 0 1 1 1 5 9 8 5 4 3 3 3 3 3 4 5 6 7 8 6 7 7 7 9 6 8 10 11 8 7 8 7 7 9 9 9 10
2 2 0 0 1 1 1 2 2 3 2 2 2 3 3 3 3 2 8 2 1 2 6 10 5 5 5 4 4 4 3 4 4 6 6 6 5 7 9 10 7 6 5 5 7 5 5 6 6 6 8 9 9 10
2 2 0 0 1 1 1 2 2 2 2 2 2 2 2 2 2 4 5 3 3 0 5 8 9 6 5 5 5 5 4 4 5 6 6 6 6 7 8 10 7 6 5 4 4 5 7 6 7 6 7 8 8 9
2 0 0 0 1 1 2 2 2 2 2 2 2 2 2 2 2 3 2 2 2 2 4 8 9 8 5 7 7 4 6 5 5 6 6 7 6 7 9 7 6 5 5 5 5 4 5 5 6 7 7 9 10 10
1 1 0 1 1 2 2 2 2 2 1 2 2 2 2 3 4 4 3 2 -1 2 7 7 10 11 5 6 6 6 5 8 5 7 7 7 8 10 8 7 6 5 5 6 5 5 5 6 7 7 8 9 10 11
1 0 1 1 1 2 2 2 2 2 2 2 3 5 8 4 3 2 2 4 4 4 4 7 6 9 6 6 7 7 6 8 10 8 6 8 9 6 6 6 4 4 4 4 6 7 6 7 7 8 8 9 9 11
0 1 1 1 2 2 2 2 2 2 4 3 6 7 3 2 2 4 8 7 6 8 6 6 6 8 4 8 8 6 8 8 11 9 9 10 10 7 5 5 4 4 4 4 4 5 5 6 7 7 8 8 9 10
0 1 1 1 2 2 2 3 3 3 3 4 3 2 2 4 6 8 9 8 9 10 7 8 7 6 6 4 7 7 9 9 12 7 10 12 9 6 5 5 4 4 4 4 4 5 5 5 6 7 7 8 8 9
1 1 1 1 2 2 2 3 2 2 2 2 4 6 6 7 11 11 13 11 10 7 6 7 8 6 5 5 8 8 11 11 7 10 12 10 7 6 5 4 4 4 4 4 4 4 5 5 5 6 7 8 9 11
1 1 1 1 2 2 2 2 2 2 3 6 8 11 9 11 9 9 9 8 7 6 6 6 7 7 6 9 9 11 9 8 12 13 12 9 7 5 4 4 4 5 6 5 6 6 7 8 9 9 9 10 11 13
1 1 1 2 2 2 2 3 2 2 4 7 7 12 10 8 8 7 7 7 6 5 6 7 7 7 8 10 8 10 11 13 11 11 9 7 7 6 5 5 7 8 8 8 8 9 10 11 11 11 11 11 12 14
1 1 1 1 2 2 3 3 2 3 5 7 8 9 8 8 9 9 8 7 5 5 5 5 8 10 10 9 11 12 12 12 10 9 6 6 7 6 6 7 8 8 8 8 9 9 10 11 11 11 11 12 14 15
2 3 1 1 1 2 2 3 4 7 7 8 9 7 8 7 9 8 7 7 4 6 9 7 10 11 8 10 11 8 11 9 7 6 6 8 8 8 7 8 8 8 8 8 9 10 10 10 11 12 13 14 14 14
3 2 2 2 2 3 3 4 6 7 9 8 9 8 7 8 8 8 7 5 5 6 6 8 7 10 11 11 11 8 7 6 5 5 7 9 9 8 8 8 9 8 8 9 9 10 11 12 12 12 12 13 13 14
2 2 2 2 2 4 6 6 5 9 9 7 7 7 7 8 7 7 6 5 4 4 5 6 9 9 9 8 8 7 6 6 6 6 9 9 9 9 9 9 9 9 9 9 9 10 10 11 10 10 10 13 13 13
1 2 2 2 2 5 8 7 4 7 9 8 6 7 7 8 8 8 7 5 5 5 8 8 9 8 7 7 5 5 5 4 5 6 7 8 8 9 9 8 8 9 9 9 9 9 9 10 9 9 10 11 11 11
1 2 1 1 3 4 6 7 8 7 7 8 7 7 8 6 7 7 7 5 7 7 8 7 7 7 7 7 6 4 6 4 5 5 5 7 7 7 9 8 8 8 8 8 9 9 9 9 8 9 9 10 9 10
1 2 1 2 5 5 7 6 7 7 8 8 8 7 8 9 8 8 7 7 8 9 8 8 8 6 6 8 8 7 7 6 7 7 7 7 7 7 8 8 8 8 8 8 8 9 9 8 8 9 9 9 9 10
2 1 2 4 7 8 9 5 9 8 10 10 8 9 9 9 8 7 8 8 9 8 7 8 7 7 7 7 7 7 7 6 6 7 6 6 6 6 7 8 7 8 8 8 7 8 8 8 9 9 9 9 10 11
2 5 6 7 7 10 7 9 8 9 9 10 11 12 10 9 8 8 10 9 9 8 8 8 8 7 7 7 8 8 8 6 7 7 7 7 7 8 8 8 8 8 8 8 8 8 9 9 9 9 9 10 10 11
7 8 6 9 6 9 10 10 10 10 12 11 12 11 10 8 10 11 10 10 9 9 9 8 8 8 9 8 8 9 7 7 7 9 8 7 8 8 9 9 9 9 8 8 9 9 9 10 9 10 10 10 11 11
10 8 8 8 8 9 9 11 11 11 11 12 11 9 9 10 12 12 11 10 10 10 11 11 10 9 10 9 9 10 9 8 7 9 10 8 8 8 9 10 11 10 8 7 9 10 10 10 10 10 10 11 12 13
9 9 6 5 6 7 8 8 8 9 11 11 10 11 11 13 12 12 11 11 11 11 10 10 10 10 10 10 10 10 10 9 9 10 9 9 9 9 9 9 11 10 8 8 8 9 10 10 11 11 12 13 13 14
6 6 9 8 8 7 10 10 10 11 9 8 9 11 12 12 12 11 11 10 10 10 10 10 9 10 10 10 9 10 10 10 9 9 10 10 10 10 10 10 10 11 10 9 8 8 9 11 12 13 15 17 18 17
7 6 7 10 9 9 9 9 9 9 8 8 9 10 11 12 11 11 11 10 9 10 9 9 10 9 9 9 8 8 8 8 10 11 12 13 13 12 10 11 11 12 12 13 13 12 13 14 15 16 17 18 18 19
8 6 9 9 10 10 9 8 9 9 8 8 8 10 10 11 11 10 10 10 10 10 10 9 9 8 9 10 11 12 11 10 10 10 10 13 13 11 12 12 13 14 14 15 16 17 16 17 17 18 19 20 20 22
7 8 9 8 9 8 8 9 9 9 9 9 9 9 10 12 12 12 13 12 11 10 9 10 12 11 11 11 11 12 14 12 11 11 11 12 12 12 13 13 13 14 14 15 16 17 17 19 19 20 21 22 23 24
8 9 9 11 10 10 9 10 9 10 10 11 11 10 11 12 13 13 14 13 10 12 13 12 13 14 13 13 13 13 13 13 14 14 14 14 14 14 14 14 14 15 16 17 17 18 19 20 21 22 23 24 25 26
10 10 10 11 11 12 11 11 12 12 12 12 12 12 12 13 15 15 14 14 14 14 15 15 15 15 16 16 17 17 17 17 16 15 15 15 15 15 15 16 16 17 18 19 19 20 21 22 23 24 24 25 25 25

GFSWCAN_con_lsi_135.txt.gz
Lid_Strength_Index
1 1 1 0 1 2 0 1 1 1 1 1 2 3 4 3 4 5 6 3 5 8 7 6 6 9 9 9 12 10 11 11 12 13 12 13 14 11 13 11 12 13 15 15 15 16 18 8 9 13 12 10 9 10
1 1 1 1 1 2 0 -0 0 1 1 2 2 3 3 4 3 4 7 2 2 7 8 5 5 5 6 6 9 9 9 10 10 12 11 12 13 12 12 16 9 14 11 14 13 14 11 9 9 8 8 10 10 11
1 1 1 1 2 2 -0 -0 0 1 1 2 3 3 3 3 3 3 4 3 5 8 8 8 8 6 5 5 5 10 8 7 7 6 9 10 12 10 14 13 11 9 8 13 13 12 11 10 7 6 7 9 9 10
1 1 1 1 2 0 -0 0 1 1 2 3 3 3 3 3 2 3 5 3 5 8 11 10 5 7 4 4 4 4 5 5 6 6 8 10 11 8 11 10 11 9 9 12 13 11 9 8 7 7 8 8 9 9
2 1 1 2 1 0 0 1 1 2 3 3 3 3 3 3 2 2 3 4 4 8 11 11 7 6 4 5 5 5 6 7 8 9 9 10 9 9 9 9 11 8 11 14 16 11 11 10 7 7 9 9 9 9
1 2 2 2 0 0 0 1 1 2 3 2 3 3 2 2 1 4 9 4 5 5 9 13 8 7 6 5 5 6 6 6 7 8 9 8 6 8 12 14 8 7 7 7 9 8 8 7 6 7 9 9 9 10
2 2 2 1 0 0 1 1 2 2 2 2 3 3 2 2 4 6 8 6 4 4 9 13 11 7 6 6 7 8 6 7 7 9 9 9 9 8 13 14 8 7 7 7 7 7 8 8 8 7 8 8 8 9
2 2 1 0 0 1 1 1 1 2 2 2 3 2 1 2 3 5 5 4 4 5 7 13 13 11 6 10 10 7 9 8 8 9 9 9 9 10 13 9 8 7 7 7 7 6 7 6 6 8 9 9 11 12
3 2 0 0 0 1 1 1 2 2 2 2 2 2 2 4 6 6 3 3 3 5 10 12 14 16 7 8 9 9 8 12 8 10 10 10 11 14 10 8 8 8 8 8 7 7 7 8 9 9 10 10 12 12
3 0 1 1 1 1 1 1 2 2 2 2 4 6 9 6 3 3 5 7 7 7 6 11 9 13 8 10 11 11 10 12 13 11 9 12 12 8 8 7 7 7 6 7 9 9 8 9 10 10 10 11 12 12
0 1 1 1 1 1 1 2 2 3 3 5 8 8 5 2 5 7 12 12 10 11 8 8 9 11 7 11 12 10 12 12 14 12 13 13 13 10 7 7 6 6 6 6 6 7 7 8 9 10 10 10 11 12
1 1 1 1 1 1 2 2 3 4 5 5 5 3 4 5 9 12 13 11 11 12 10 11 9 8 9 7 10 10 12 12 14 10 14 16 12 8 7 7 7 7 6 6 6 7 7 7 9 10 10 10 11 11
1 1 1 1 2 2 2 2 2 2 2 4 6 8 8 11 16 16 17 13 13 11 9 9 11 9 9 8 12 12 15 15 11 16 16 13 10 8 7 7 7 7 7 7 7 7 7 8 8 9 10 10 11 13
1 1 1 2 2 2 2 2 3 3 5 9 11 16 13 16 13 11 11 11 10 10 9 10 11 11 11 12 11 15 13 12 17 18 14 13 10 9 8 8 8 9 10 9 10 10 10 11 14 14 12 12 14 15
1 1 1 2 2 2 2 2 2 3 6 10 10 16 14 9 9 9 10 10 10 8 9 10 10 10 13 12 12 13 15 16 15 15 11 12 10 9 9 9 10 11 12 12 12 13 14 14 14 16 17 15 14 15
1 2 3 2 2 2 2 2 3 5 8 9 10 13 12 12 13 9 10 10 8 9 9 9 11 13 13 13 13 14 14 16 14 12 11 11 11 10 10 9 9 10 11 12 13 14 14 15 15 16 17 18 18 17
2 4 1 2 2 2 2 4 6 8 9 11 12 9 9 9 10 9 9 9 7 9 12 11 14 12 11 13 13 12 13 11 10 10 10 9 9 9 8 9 10 9 13 13 14 14 16 15 15 14 17 18 18 19
4 2 1 2 2 3 4 5 9 9 10 9 11 9 9 9 9 10 10 8 8 10 10 11 10 12 15 14 14 11 10 10 9 10 10 10 9 9 9 9 9 9 11 11 13 16 15 15 14 15 15 16 17 17
3 3 2 2 3 5 8 8 7 11 10 9 8 9 9 9 8 9 8 8 7 6 9 10 12 13 12 9 9 9 10 11 9 10 11 10 10 10 9 10 10 9 10 10 11 12 13 13 13 13 14 14 16 15
2 2 2 2 3 7 9 9 6 9 10 9 8 9 9 9 9 8 8 8 8 8 9 10 11 10 10 9 8 9 9 9 8 11 11 10 10 10 10 10 10 10 10 10 10 10 12 13 12 11 13 14 15 16
2 3 2 3 5 5 8 9 10 9 9 10 9 9 9 8 9 8 9 8 9 9 10 9 10 9 9 9 9 10 9 9 10 10 11 10 10 10 10 9 9 10 10 11 11 11 11 12 12 11 14 16 17 13
3 2 4 4 7 7 9 7 9 9 9 9 9 9 10 10 10 10 9 9 10 10 9 10 10 9 11 10 11 10 10 9 9 10 11 10 9 10 10 10 10 10 10 10 9 10 10 11 11 12 12 14 13 13
2 3 5 6 11 12 12 7 11 10 13 11 10 11 11 11 10 9 11 10 11 9 9 10 10 9 10 10 9 9 9 8 9 10 10 10 10 9 9 10 10 10 10 11 9 10 11 12 12 12 12 12 12 14
2 7 10 11 11 16 10 13 10 10 11 12 12 13 12 11 9 11 12 11 11 10 10 10 10 9 9 8 10 10 10 9 10 11 11 9 10 10 10 10 10 10 9 10 9 11 12 12 11 12 12 13 13 14
12 12 11 15 10 14 15 15 14 13 16 13 14 14 13 11 14 14 12 12 11 10 10 10 9 9 9 10 10 11 10 10 10 12 11 9 11 11 11 11 11 11 10 11 11 12 11 12 11 11 11 12 13 14
15 13 13 12 13 13 12 16 16 16 15 16 15 12 12 14 16 16 13 12 11 12 12 11 11 10 11 11 11 12 12 11 10 13 13 12 12 11 12 16 16 13 10 10 11 12 13 14 11 13 12 13 14 16
15 14 8 6 8 8 12 11 10 13 16 17 15 15 16 19 17 14 12 12 12 12 11 10 10 10 11 12 12 11 11 11 12 12 12 11 12 12 12 12 14 12 12 11 11 13 12 12 14 15 15 14 16 18
10 9 14 11 12 9 15 15 15 16 13 9 12 17 17 16 15 13 13 13 11 11 11 11 11 11 11 11 11 12 12 13 14 14 12 12 12 12 13 13 13 13 13 11 10 11 12 14 16 18 18 20 20 19
11 8 9 11 10 10 12 14 13 11 11 10 13 13 15 13 13 12 14 12 11 11 11 12 12 11 11 11 11 11 11 12 14 16 19 19 19 15 15 14 15 15 15 14 13 14 15 16 17 19 20 21 22 22
11 8 12 14 16 16 10 10 10 10 10 10 11 13 13 13 13 14 12 12 12 12 13 12 11 10 12 15 15 15 13 13 13 13 17 19 17 15 16 16 16 17 17 18 18 18 17 19 19 20 21 23 24 25
8 9 11 12 13 10 9 11 9 10 10 10 11 11 15 15 15 17 18 16 15 12 12 14 15 14 14 14 17 18 17 14 14 13 13 14 15 15 15 16 17 17 17 17 18 19 20 21 22 23 25 26 28 30
10 10 12 12 12 10 10 13 11 11 12 16 15 12 16 15 18 18 17 15 13 16 16 16 17 16 15 15 15 15 15 15 16 15 16 16 16 16 16 16 17 17 18 19 20 21 22 23 24 26 28 31 32 33
11 10 11 11 12 13 13 14 13 14 15 15 14 15 16 17 20 20 18 16 17 17 17 17 17 17 18 18 18 18 18 19 18 16 16 16 17 17 18 18 19 20 20 21 22 23 25 27 28 30 31 32 33 34

GFSWCAN_con_lsi_138.txt.gz
Lid_Strength_Index
1 1 1 1 1 2 2 1 1 1 1 1 1 2 2 2 2 3 5 4 5 8 7 6 6 9 9 10 12 10 11 11 11 13 12 13 14 12 13 11 12 14 15 15 15 17 18 9 10 13 11 10 10 11
1 1 1 1 1 1 2 0 0 1 1 1 2 2 2 2 2 3 7 2 2 6 7 4 5 5 6 7 9 9 10 10 9 11 12 12 13 12 12 16 9 14 11 13 13 14 11 10 11 10 10 11 10 10
1 1 1 1 1 1 1 1 0 1 1 1 1 1 2 2 3 4 6 4 5 8 8 7 8 6 4 5 5 10 9 8 9 7 9 10 12 11 14 14 12 10 9 13 13 13 12 11 10 10 10 11 10 10
1 1 1 1 1 2 1 1 0 1 1 1 1 2 2 2 3 3 6 4 6 8 11 10 5 7 4 5 5 6 6 5 6 6 9 10 12 9 12 10 11 10 10 13 14 13 11 10 10 10 10 10 10 10
0 1 1 1 2 2 1 0 0 0 1 1 2 3 3 3 2 2 3 4 5 8 11 11 7 6 6 5 6 6 6 7 8 10 10 11 10 10 10 10 12 9 12 14 15 12 12 12 10 9 10 10 10 10
1 1 1 2 2 1 0 0 0 1 1 3 2 2 2 2 2 3 9 5 5 6 10 13 8 8 7 6 7 7 7 8 8 9 10 9 8 9 13 13 9 8 7 8 10 10 10 10 9 8 10 10 9 9
1 1 1 1 2 0 0 0 1 1 2 3 1 2 2 2 4 7 9 6 5 6 9 13 12 8 7 8 8 8 7 8 9 10 10 10 10 9 13 13 9 8 8 9 9 9 11 10 11 8 9 9 8 9
1 1 2 2 1 0 1 1 1 1 2 2 2 1 2 2 3 7 6 4 4 6 8 14 12 11 7 11 11 8 10 9 9 10 9 10 10 11 13 9 8 8 9 9 9 8 9 8 8 8 9 10 11 12
2 2 3 1 0 1 1 1 1 1 2 2 1 1 3 4 7 7 3 3 4 7 12 13 14 16 8 9 9 10 9 13 9 11 11 10 13 14 10 9 9 9 9 9 9 9 9 9 9 10 10 11 12 13
2 2 1 1 1 1 1 1 1 2 2 2 3 6 9 7 3 3 6 9 8 8 9 13 11 13 9 11 11 11 12 13 13 11 10 13 14 9 7 7 7 8 8 8 11 11 11 11 11 11 11 11 12 13
2 0 1 1 0 1 1 1 2 2 2 5 8 8 6 3 6 8 13 13 12 12 10 11 11 12 8 12 13 11 13 13 15 12 13 14 14 11 8 8 7 7 7 8 8 9 9 9 11 11 12 11 12 12
0 0 1 0 0 1 1 1 2 4 5 5 5 3 5 6 10 13 14 12 11 12 11 11 10 9 10 9 11 12 13 13 14 12 15 17 13 9 8 8 8 8 8 8 8 9 9 9 10 11 11 12 11 11
1 1 1 1 1 1 2 2 2 3 3 5 6 9 10 13 17 18 19 14 14 12 11 11 12 10 10 10 13 13 16 17 13 18 17 14 12 9 8 8 8 8 8 8 9 9 9 10 10 10 11 12 13 13
1 1 1 1 1 2 2 2 3 4 5 9 11 16 14 18 12 11 10 12 11 12 10 11 12 12 13 13 12 17 14 13 19 19 15 14 11 10 9 9 9 11 11 10 10 11 11 11 14 15 13 14 15 16
1 1 1 2 2 2 2 2 2 4 8 11 11 16 15 10 10 10 11 13 11 10 10 11 11 11 14 15 14 14 16 18 16 15 12 13 11 10 10 10 11 12 13 13 13 14 16 16 15 19 20 17 16 18
1 2 3 2 2 2 2 3 5 6 9 11 10 13 12 14 11 12 10 10 10 11 10 10 12 14 14 14 14 16 14 17 12 11 13 12 10 10 10 11 12 13 12 13 14 15 16 16 15 17 19 20 19 18
3 4 2 2 2 2 2 6 8 9 11 11 12 9 9 12 11 11 9 10 9 10 13 12 15 13 12 14 14 13 12 11 11 11 11 12 12 10 9 10 10 14 14 14 15 15 17 17 16 15 17 20 18 18
5 4 2 2 3 4 6 6 10 10 11 10 12 10 9 9 10 11 9 9 9 11 11 12 11 13 17 15 15 10 11 11 10 11 11 10 10 9 9 9 10 13 14 15 15 17 17 16 16 15 16 17 17 16
4 4 3 3 4 7 10 9 8 12 11 10 9 9 9 9 9 9 9 8 8 7 10 11 13 12 11 10 10 10 11 12 12 12 12 11 10 10 10 10 9 10 11 12 12 14 15 15 14 14 15 15 16 15
2 2 2 3 3 9 10 10 8 10 12 10 9 10 9 9 9 8 8 8 9 10 11 11 12 11 11 11 10 10 12 11 11 12 12 11 10 10 10 10 10 10 10 10 10 11 13 14 13 13 14 15 16 17
4 4 3 5 7 8 10 10 11 10 10 11 9 10 9 8 9 8 9 8 11 10 11 10 11 10 10 10 10 10 10 9 10 11 11 11 11 10 11 10 10 10 11 11 11 12 12 13 14 13 15 18 19 17
6 3 7 6 9 9 11 10 11 10 10 10 10 9 11 11 12 10 9 12 12 11 10 10 10 10 11 12 12 11 11 10 10 10 11 11 11 11 11 11 10 11 11 11 10 11 11 11 13 13 15 18 16 14
3 5 8 9 13 15 14 10 12 11 13 12 11 11 12 13 11 9 12 11 12 10 10 11 10 10 11 11 10 10 9 10 11 10 10 10 10 10 11 11 10 11 11 11 10 10 11 13 14 13 13 13 12 13
4 9 13 14 13 18 13 15 11 11 13 13 13 14 13 13 10 11 13 13 11 10 10 10 10 9 9 10 11 11 10 10 11 11 11 10 11 11 11 11 11 10 10 10 11 12 13 13 12 12 12 13 12 13
13 14 15 19 14 16 19 19 17 14 18 15 16 15 14 11 14 14 13 12 12 12 12 11 10 9 11 12 12 12 10 10 11 12 12 11 12 13 13 14 13 11 11 12 14 13 13 12 12 12 12 13 14 17
18 16 15 17 17 16 14 18 19 18 18 18 17 13 14 16 17 17 14 14 13 13 13 12 12 11 12 11 13 13 13 11 12 14 13 13 13 15 17 19 18 15 11 13 13 14 14 13 12 12 12 14 17 19
18 18 10 8 9 10 15 14 11 16 19 19 18 19 19 21 19 15 13 13 13 14 11 11 11 11 13 13 12 12 12 13 13 13 13 13 14 14 14 17 16 13 12 15 14 15 15 15 15 16 17 18 18 19
13 12 16 15 15 12 19 19 19 18 13 11 14 19 19 17 17 16 15 13 14 11 11 11 11 11 12 12 12 13 15 16 15 15 14 14 14 15 15 15 15 14 14 13 13 15 16 17 18 19 19 20 21 21
14 12 13 18 17 16 16 14 13 12 10 12 16 17 15 14 15 14 15 13 12 12 13 14 13 12 12 13 14 14 16 17 19 22 22 23 23 19 18 17 18 16 15 15 15 16 17 18 19 21 22 22 23 24
11 11 17 20 20 17 12 10 11 11 11 11 12 14 15 16 17 16 15 15 15 14 14 14 15 16 18 20 21 17 16 16 17 18 20 23 21 20 21 19 18 18 17 18 19 19 18 20 20 23 24 25 26 28
12 14 17 19 19 12 11 11 10 10 11 11 11 13 18 19 19 20 21 19 19 19 16 17 17 16 15 19 21 20 20 16 15 15 15 16 17 17 17 18 18 18 18 19 20 21 22 23 25 26 27 29 30 31
15 14 15 15 15 13 13 18 13 18 18 20 20 19 19 20 22 22 19 18 19 18 18 18 19 20 18 18 16 16 17 17 16 16 17 16 17 17 17 18 18 19 20 21 22 23 25 26 27 29 30 31 33 34
17 18 18 16 16 16 16 18 17 18 19 20 19 20 21 20 23 22 21 19 20 21 19 19 19 19 20 20 20 20 20 19 18 16 17 17 18 19 19 20 20 21 22 24 25 26 27 28 30 31 33 33 34 36

GFSWCAN_con_lsi_141.txt.gz
Lid_Strength_Index
-0 -1 -1 -0 -0 0 1 1 1 1 1 1 1 1 1 1 1 3 4 2 4 6 7 5 5 8 8 8 11 9 9 9 10 12 13 13 13 12 13 11 13 14 15 16 15 17 18 10 10 13 12 11 11 12
-0 -0 -0 -0 -0 1 1 1 1 1 1 1 1 1 1 1 1 2 5 2 2 5 6 5 4 4 5 6 9 9 9 10 9 11 12 11 14 13 13 16 10 14 13 14 14 14 11 10 11 10 10 11 12 12
-0 -0 0 0 0 0 1 2 1 1 1 1 1 1 1 1 1 2 4 3 3 6 7 6 7 5 3 5 5 10 9 8 9 8 10 10 12 10 14 14 12 10 10 14 12 13 11 11 10 10 10 11 11 11
-0 0 0 0 0 0 1 1 1 1 1 1 1 1 1 1 1 2 4 3 3 7 10 9 5 6 4 4 5 6 6 6 6 6 8 9 11 9 12 10 12 11 11 13 14 12 11 10 10 11 12 12 11 10
-0 -0 0 1 0 1 2 1 1 0 0 0 1 1 1 1 2 2 3 4 3 7 11 10 7 6 5 5 6 5 6 7 9 9 10 11 10 10 11 11 13 10 12 14 15 12 12 12 11 11 12 13 12 11
-0 0 1 1 1 1 1 1 0 0 1 1 1 1 1 2 3 3 8 3 3 5 10 13 8 8 7 6 7 8 7 8 8 9 10 9 8 10 14 14 10 9 9 9 10 10 11 11 11 11 12 12 11 11
1 1 1 1 1 1 1 0 0 1 1 1 2 2 2 3 3 5 8 5 4 5 10 13 12 9 8 8 9 9 8 9 10 11 11 11 10 10 13 15 9 8 9 9 9 10 12 12 12 11 11 11 9 10
1 1 1 1 1 2 1 0 1 1 1 2 2 2 2 2 3 6 5 3 4 6 7 13 13 11 8 11 12 10 11 10 10 12 11 12 11 12 13 10 9 9 9 9 9 9 10 10 11 11 11 11 12 13
1 1 1 2 2 1 0 0 1 1 2 2 2 2 3 4 7 6 3 3 4 7 11 13 14 16 9 11 10 10 11 14 11 13 12 12 13 14 11 9 10 10 10 10 10 10 11 11 12 12 11 11 13 14
1 1 3 2 2 0 1 1 1 2 2 2 3 7 9 6 2 3 6 8 8 8 9 12 11 13 10 12 12 12 13 13 14 12 11 13 13 9 8 8 8 8 8 9 11 12 12 12 12 13 12 12 12 13
1 2 2 2 0 1 1 1 1 1 2 5 8 9 6 3 6 9 13 12 12 12 11 11 11 12 9 12 13 12 14 14 15 13 14 14 13 12 9 8 7 8 8 9 9 10 10 11 12 13 13 13 13 13
2 2 0 0 1 0 0 1 2 3 5 5 4 4 5 7 10 12 15 12 11 13 11 11 11 10 11 10 11 12 14 14 15 13 16 17 13 9 9 8 8 8 8 9 9 10 10 11 11 12 12 12 12 13
1 0 0 0 0 1 1 1 2 2 2 5 7 9 10 13 16 17 19 14 14 12 12 12 13 11 11 11 13 13 16 18 14 19 18 14 13 10 9 9 9 8 9 9 9 10 10 11 11 12 12 12 13 14
0 0 0 1 1 1 2 2 2 3 5 9 12 16 18 18 12 12 11 12 12 13 11 11 12 12 13 13 13 17 15 14 21 21 16 15 12 11 10 10 10 10 11 10 10 11 12 12 14 16 15 15 15 17
1 1 1 1 2 2 2 2 2 4 7 10 11 15 15 11 10 10 10 12 11 11 10 12 12 12 15 15 15 15 16 19 17 17 16 15 12 11 11 11 12 12 14 14 13 14 16 16 15 19 21 20 18 19
1 1 3 2 2 2 2 3 4 6 9 10 11 14 12 13 12 12 10 10 10 12 11 11 13 15 16 15 15 17 15 18 16 12 12 12 11 11 13 13 13 13 13 13 14 15 16 16 17 17 20 21 22 18
2 4 2 2 2 2 3 6 8 10 11 11 11 9 13 15 12 11 9 9 9 11 15 12 16 14 13 16 15 12 15 12 12 12 11 10 10 11 11 12 15 14 14 14 16 16 18 18 17 16 17 21 19 19
5 3 2 2 3 4 6 7 9 10 12 11 12 10 9 10 11 10 9 9 10 12 12 13 12 14 18 16 14 11 12 12 11 11 11 11 10 10 10 10 14 14 14 15 16 17 17 17 16 17 16 17 17 17
5 4 2 2 4 7 9 9 9 12 11 10 10 9 9 10 9 9 9 9 9 9 11 12 13 13 12 11 10 11 11 11 12 12 12 11 10 10 10 10 11 13 14 14 13 14 15 14 14 15 15 15 15 15
3 3 3 3 4 9 10 10 8 11 12 10 9 10 9 10 9 9 8 9 10 11 12 12 12 12 11 11 10 10 11 11 12 12 12 12 11 10 10 10 10 10 11 11 11 12 13 14 13 13 14 15 16 17
4 4 4 5 7 8 10 11 11 10 10 11 9 9 10 8 9 9 10 9 12 12 12 11 12 11 10 10 10 10 10 10 11 11 12 12 11 10 11 10 10 11 11 11 11 12 12 13 14 13 16 17 18 17
7 4 8 7 10 10 11 10 11 11 11 11 11 9 11 11 11 12 9 13 14 12 13 11 11 11 11 12 13 12 12 10 10 11 12 12 11 11 11 11 11 12 11 11 11 11 11 11 14 14 15 18 17 17
4 6 9 10 14 15 15 11 12 11 14 13 11 12 13 13 10 9 13 12 13 11 11 11 10 10 11 11 10 10 10 10 11 11 10 10 10 10 11 11 11 11 12 11 10 11 12 13 15 15 15 15 14 14
5 10 14 15 14 19 14 16 12 12 13 14 14 15 14 13 10 12 14 15 13 11 11 10 9 10 11 11 11 11 11 10 11 12 10 10 11 11 11 11 11 11 11 11 11 12 13 14 14 13 13 13 15 16
13 15 16 20 15 17 20 21 19 16 20 16 16 16 15 12 16 15 16 14 14 13 12 11 10 10 12 12 13 12 11 10 11 13 13 11 12 13 14 14 13 12 12 14 16 15 14 13 12 13 13 16 17 19
19 17 16 18 18 16 16 19 20 20 20 20 19 15 15 17 18 18 15 15 13 13 14 13 12 12 12 12 13 13 14 12 12 14 14 13 14 16 18 20 19 16 12 14 16 15 14 14 13 14 16 17 18 20
20 19 11 9 10 10 16 15 13 17 20 20 19 20 20 21 21 16 15 14 14 14 13 12 11 12 13 13 13 13 13 13 14 14 15 15 16 16 16 17 15 14 13 15 15 17 16 17 17 18 18 19 19 20
14 13 18 17 16 13 20 21 20 16 14 12 16 20 21 20 18 17 17 15 14 12 12 12 12 13 14 14 14 14 16 16 17 18 18 17 17 17 18 18 17 14 15 18 19 19 18 17 19 20 20 21 21 21
15 14 14 19 20 19 17 12 13 12 11 13 17 19 15 16 18 16 16 16 13 12 15 14 15 14 14 15 18 18 20 21 21 23 25 25 24 21 19 19 19 17 16 16 16 17 19 20 20 22 23 24 25 26
15 12 17 22 21 17 16 10 11 11 10 11 13 15 16 18 19 18 18 17 18 19 19 15 16 18 19 19 21 20 20 21 21 20 20 22 22 22 22 21 20 19 19 19 20 20 19 22 22 24 25 27 28 29
14 17 19 21 20 13 11 11 11 11 11 11 12 15 18 22 21 23 23 21 21 21 19 19 19 19 18 19 20 19 19 19 19 18 17 18 20 20 19 19 19 20 21 21 22 23 24 25 26 27 29 30 31 32
16 15 16 16 16 15 15 18 13 17 20 19 19 22 22 24 24 24 22 22 20 21 21 20 20 21 20 19 18 18 17 18 17 16 17 17 18 18 19 19 20 21 22 23 24 25 26 27 28 29 31 33 34 35
16 17 18 17 17 17 17 17 18 18 20 20 21 22 22 21 23 24 22 21 21 21 21 21 21 20 20 20 20 20 19 18 17 16 17 18 19 19 20 21 21 22 23 25 26 27 28 29 30 32 34 35 37 39